Back to catalog

STARLINK-5297

AliveCommunicationsVLEO
NORAD 54158·PAYLOAD·🇺🇸 United States

Launched Oct 28, 2022 from Vandenberg Space Force Base

Loading…

Next Passes (next 24 hours)

TLE

FreshSource: CelesTrak SupGP

Epoch: Sep 14, 2026, 21:25 UTC

1 54158C 22141B   26257.89284722  .00734210  00000+0  27695-1 0  2570
2 54158  53.1601 243.5047 0001246  86.8186 122.2925 15.26145366    19

Track STARLINK-5297 in real time with AllMySat

Download on the App Store